When you browse on this site, cookies collect data to enhance your experience and personalize the content and advertising you see.
Visit our Privacy Policy to learn more. By continuing to use the site, you agree to this use of cookies and data.
  • In United Kingdom
  • List of Countries
  • For 7 days
  • Water Temperature
  • Satellite Maps
  • Weather Map
  • Weather Widgets
  • user-avatar
    Login

    Hourly Weather Loubomo

    Today, 20 April, Saturday

    Time Temperature Precipitation Wind Pressure Humidity
    00:00 +21°C° 0 mm 0 mps 700 mmHg 97%
    01:00 +20°C° 0 mm 0 mps 700 mmHg 96%
    02:00 +20°C° 0.8 mm 0 mps 700 mmHg 96%
    03:00 +20°C° 0.8 mm 0 mps 700 mmHg 97%
    04:00 +20°C° 0.8 mm 0 mps 700 mmHg 98%
    05:00 +20°C° 0.3 mm 0 mps 700 mmHg 97%
    06:00 +21°C° 0.3 mm 0 mps 701 mmHg 97%
    07:00 +21°C° 0 mm 0 mps 701 mmHg 96%
    08:00 +23°C° 0 mm 0 mps 701 mmHg 87%
    09:00 +25°C° 0 mm 0 mps 702 mmHg 78%
    10:00 +27°C° 0 mm 0 mps 702 mmHg 68%
    11:00 +27°C° 0.5 mm 0 mps 701 mmHg 72%
    12:00 +26°C° 0.5 mm 0 mps 701 mmHg 75%
    13:00 +30°C° 0 mm 1 mps 701 mmHg 67%
    14:00 +31°C° 0.1 mm 1 mps 700 mmHg 62%
    15:00 +29°C° 0.1 mm 0 mps 700 mmHg 57%
    16:00 +30°C° 0.1 mm 0 mps 699 mmHg 52%
    17:00 +28°C° 0 mm 0 mps 699 mmHg 61%
    18:00 +28°C° 0 mm 1 mps 699 mmHg 70%
    19:00 +26°C° 0 mm 1 mps 699 mmHg 79%
    20:00 +25°C° 2.4 mm 1 mps 699 mmHg 85%
    21:00 +22°C° 2.4 mm 0 mps 699 mmHg 91%
    22:00 +21°C° 2.4 mm 0 mps 700 mmHg 97%
    23:00 +21°C° 3.8 mm 0 mps 700 mmHg 97%

    Tomorrow, 21 April, Sunday

    Time Temperature Precipitation Wind Pressure Humidity
    00:00 +21°C° 3.8 mm 0 mps 700 mmHg 97%
    01:00 +21°C° 3.8 mm 0 mps 700 mmHg 98%
    02:00 +21°C° 1.5 mm 0 mps 700 mmHg 97%
    03:00 +23°C° 1.5 mm 1 mps 700 mmHg 97%
    04:00 +23°C° 1.5 mm 1 mps 699 mmHg 97%
    05:00 +23°C° 0 mm 1 mps 699 mmHg 97%
    06:00 +21°C° 0 mm 0 mps 699 mmHg 96%
    07:00 +21°C° 0 mm 0 mps 700 mmHg 95%
    08:00 +24°C° 0 mm 0 mps 700 mmHg 83%
    09:00 +27°C° 0 mm 0 mps 701 mmHg 70%
    10:00 +30°C° 0 mm 0 mps 701 mmHg 57%
    11:00 +32°C° 0 mm 0 mps 701 mmHg 51%
    12:00 +34°C° 0 mm 0 mps 700 mmHg 45%
    13:00 +35°C° 0 mm 0 mps 700 mmHg 38%
    14:00 +34°C° 0 mm 0 mps 699 mmHg 44%
    15:00 +32°C° 0 mm 0 mps 698 mmHg 49%
    16:00 +31°C° 0 mm 0 mps 697 mmHg 54%
    17:00 +29°C° 0 mm 0 mps 697 mmHg 59%
    18:00 +28°C° 0 mm 0 mps 697 mmHg 64%
    19:00 +28°C° 0 mm 1 mps 697 mmHg 68%
    20:00 +27°C° 0.2 mm 1 mps 698 mmHg 74%
    21:00 +27°C° 0.2 mm 1 mps 698 mmHg 79%
    22:00 +26°C° 0.2 mm 1 mps 699 mmHg 84%
    23:00 +25°C° 1.9 mm 1 mps 699 mmHg 88%

    Day after tomorrow, 22 April, Monday

    Time Temperature Precipitation Wind Pressure Humidity
    00:00 +24°C° 1.9 mm 1 mps 699 mmHg 92%
    01:00 +23°C° 1.9 mm 2 mps 700 mmHg 95%
    02:00 +23°C° 0.3 mm 1 mps 699 mmHg 96%
    03:00 +23°C° 0.3 mm 1 mps 699 mmHg 97%
    04:00 +22°C° 0.3 mm 1 mps 698 mmHg 97%
    05:00 +23°C° 0 mm 1 mps 699 mmHg 96%
    06:00 +21°C° 0 mm 0 mps 699 mmHg 95%
    07:00 +21°C° 0 mm 0 mps 700 mmHg 94%
    08:00 +23°C° 0 mm 0 mps 700 mmHg 83%
    09:00 +28°C° 0 mm 1 mps 701 mmHg 72%
    10:00 +30°C° 0 mm 1 mps 701 mmHg 61%
    11:00 +31°C° 0 mm 1 mps 701 mmHg 56%
    12:00 +33°C° 0 mm 1 mps 700 mmHg 50%
    13:00 +34°C° 0 mm 1 mps 699 mmHg 45%
    14:00 +35°C° 0 mm 1 mps 699 mmHg 44%
    15:00 +35°C° 0 mm 1 mps 698 mmHg 43%
    16:00 +35°C° 0 mm 1 mps 697 mmHg 43%
    17:00 +33°C° 0 mm 1 mps 698 mmHg 51%
    18:00 +29°C° 0 mm 0 mps 698 mmHg 59%
    19:00 +27°C° 0 mm 0 mps 698 mmHg 68%
    20:00 +27°C° 0.2 mm 1 mps 698 mmHg 75%
    21:00 +26°C° 0.2 mm 1 mps 699 mmHg 83%
    22:00 +25°C° 0.2 mm 1 mps 699 mmHg 91%
    23:00 +24°C° 0 mm 1 mps 699 mmHg 92%

    23 April, Tuesday

    Time Temperature Precipitation Wind Pressure Humidity
    00:00 +24°C° 0 mm 1 mps 699 mmHg 92%
    01:00 +22°C° 0 mm 0 mps 699 mmHg 93%
    02:00 +22°C° 0 mm 0 mps 698 mmHg 94%
    03:00 +22°C° 0 mm 0 mps 698 mmHg 95%
    04:00 +22°C° 0 mm 0 mps 698 mmHg 97%
    05:00 +24°C° 0 mm 1 mps 698 mmHg 96%
    06:00 +24°C° 0 mm 1 mps 699 mmHg 95%
    07:00 +24°C° 0 mm 1 mps 699 mmHg 94%
    08:00 +26°C° 0 mm 1 mps 700 mmHg 85%
    09:00 +28°C° 0 mm 1 mps 700 mmHg 75%
    10:00 +30°C° 0 mm 1 mps 701 mmHg 66%
    11:00 +32°C° 0 mm 1 mps 700 mmHg 58%
    12:00 +34°C° 0 mm 1 mps 700 mmHg 51%
    13:00 +34°C° 0 mm 0 mps 699 mmHg 44%
    14:00 +33°C° 0 mm 0 mps 699 mmHg 46%
    15:00 +32°C° 0 mm 0 mps 698 mmHg 49%
    16:00 +31°C° 0 mm 0 mps 697 mmHg 52%
    17:00 +32°C° 0 mm 1 mps 697 mmHg 60%
    18:00 +30°C° 0 mm 1 mps 697 mmHg 68%
    19:00 +28°C° 0 mm 1 mps 698 mmHg 76%
    20:00 +27°C° 0 mm 1 mps 698 mmHg 78%
    21:00 +27°C° 0 mm 1 mps 698 mmHg 80%
    22:00 +26°C° 0 mm 1 mps 699 mmHg 83%
    23:00 +25°C° 0.9 mm 1 mps 699 mmHg 87%

    24 April, Wednesday

    Time Temperature Precipitation Wind Pressure Humidity
    00:00 +25°C° 0.9 mm 1 mps 698 mmHg 92%
    01:00 +24°C° 0.9 mm 1 mps 698 mmHg 96%
    02:00 +24°C° 1.3 mm 1 mps 698 mmHg 97%
    03:00 +24°C° 1.3 mm 1 mps 698 mmHg 98%
    04:00 +24°C° 1.3 mm 1 mps 698 mmHg 98%
    05:00 +24°C° 0.3 mm 1 mps 699 mmHg 98%
    06:00 +24°C° 0.3 mm 1 mps 699 mmHg 97%
    07:00 +24°C° 0.3 mm 1 mps 700 mmHg 97%
    08:00 +27°C° 0 mm 1 mps 700 mmHg 86%
    09:00 +29°C° 0 mm 1 mps 701 mmHg 74%
    10:00 +31°C° 0 mm 1 mps 701 mmHg 63%
    11:00 +33°C° 0 mm 1 mps 701 mmHg 57%
    12:00 +33°C° 0 mm 0 mps 700 mmHg 50%
    13:00 +34°C° 0 mm 0 mps 699 mmHg 44%
    14:00 +33°C° 0.2 mm 0 mps 699 mmHg 48%
    15:00 +32°C° 0.2 mm 0 mps 698 mmHg 51%
    16:00 +33°C° 0.2 mm 1 mps 697 mmHg 55%
    17:00 +31°C° 0.2 mm 1 mps 698 mmHg 66%
    18:00 +29°C° 0.2 mm 1 mps 698 mmHg 77%
    19:00 +26°C° 0.2 mm 1 mps 698 mmHg 88%
    20:00 +26°C° 0 mm 1 mps 699 mmHg 90%
    21:00 +26°C° 0 mm 1 mps 699 mmHg 92%
    22:00 +25°C° 0 mm 1 mps 700 mmHg 93%
    23:00 +25°C° 0.1 mm 1 mps 700 mmHg 94%

    25 April, Thursday

    Time Temperature Precipitation Wind Pressure Humidity
    00:00 +25°C° 0.1 mm 1 mps 699 mmHg 95%
    01:00 +24°C° 0.1 mm 1 mps 699 mmHg 96%
    02:00 +24°C° 1.2 mm 1 mps 699 mmHg 97%
    03:00 +24°C° 1.2 mm 1 mps 699 mmHg 97%
    04:00 +24°C° 1.2 mm 1 mps 699 mmHg 98%
    05:00 +24°C° 0.1 mm 1 mps 699 mmHg 98%
    06:00 +24°C° 0.1 mm 1 mps 700 mmHg 98%
    07:00 +24°C° 0.1 mm 1 mps 700 mmHg 97%
    08:00 +26°C° 0 mm 1 mps 701 mmHg 85%
    09:00 +29°C° 0 mm 1 mps 701 mmHg 73%
    10:00 +31°C° 0 mm 1 mps 701 mmHg 61%
    11:00 +33°C° 0 mm 1 mps 701 mmHg 56%
    12:00 +34°C° 0 mm 1 mps 700 mmHg 51%
    13:00 +36°C° 0 mm 1 mps 699 mmHg 46%
    14:00 +35°C° 0 mm 1 mps 699 mmHg 49%
    15:00 +34°C° 0 mm 1 mps 698 mmHg 52%
    16:00 +34°C° 0 mm 1 mps 698 mmHg 55%
    17:00 +32°C° 0 mm 1 mps 698 mmHg 61%
    18:00 +30°C° 0 mm 1 mps 698 mmHg 68%
    19:00 +28°C° 0 mm 1 mps 698 mmHg 75%
    20:00 +28°C° 0 mm 1 mps 698 mmHg 77%
    21:00 +27°C° 0 mm 1 mps 698 mmHg 79%
    22:00 +27°C° 0 mm 1 mps 699 mmHg 81%
    23:00 +26°C° 0 mm 1 mps 698 mmHg 84%
    Show more